TIN weather

Tindouf Airport
Tindouf, Tindouf Province, Algeria

Public forecast

Using degrees Celsius for public forecast. Weather courtesy of forecast.io.

Current aviation weather report (METAR) for Tindouf Airport

Retrieved 2020/02/17 00:00 UTC (21 minutes ago):

DAOF 170000Z 03004KT CAVOK 17/M04 Q1025

Aviation forecast (TAF) for Tindouf Airport

Forecast is more than 12 hours old.

Retrieved 2017/11/09 18:03 UTC (2 years ago):

TAF DAOF 091700Z 0918/1009 32010KT 9999 SCT040 BKN100 PROB30 TEMPO 0918/0921 FEW033CB